Time,TemperatureF,DewpointF,PressureIn,WindDirection,WindDirectionDegrees,WindSpeedMPH,WindSpeedGustMPH,Humidity,HourlyPrecipIn,Conditions,Clouds,dailyrainin,SoftwareType,DateUTC
2013-06-06 00:00:00,55.5,52.3,30.02,NNE,14,4.0,5.0,89,0.00,,,0.00,Wunderground v.1.15,2013-06-06 05:00:00,
2013-06-06 00:05:00,55.4,52.5,30.02,NE,50,4.0,5.0,90,0.00,,,0.00,Wunderground v.1.15,2013-06-06 05:05:00,
2013-06-06 00:10:00,55.1,52.5,30.02,NNE,18,4.0,6.0,91,0.00,,,0.00,Wunderground v.1.15,2013-06-06 05:10:00,
2013-06-06 00:20:00,54.7,52.4,30.02,NNE,14,4.0,6.0,92,0.00,,,0.00,Wunderground v.1.15,2013-06-06 05:20:00,
2013-06-06 00:30:00,54.4,51.8,30.02,NE,46,5.0,5.0,91,0.00,,,0.00,Wunderground v.1.15,2013-06-06 05:30:00,
2013-06-06 00:35:00,54.2,51.6,30.02,NE,46,5.0,6.0,91,0.00,,,0.00,Wunderground v.1.15,2013-06-06 05:35:00,
2013-06-06 00:45:00,53.9,51.6,30.02,NE,36,6.0,7.0,92,0.00,,,0.00,Wunderground v.1.15,2013-06-06 05:45:00,
2013-06-06 00:50:00,53.7,51.1,30.02,NE,48,6.0,6.0,91,0.00,,,0.00,Wunderground v.1.15,2013-06-06 05:50:00,
2013-06-06 01:00:00,53.6,51.3,30.02,NNE,29,5.0,5.0,92,0.00,,,0.00,Wunderground v.1.15,2013-06-06 06:00:00,
2013-06-06 01:05:00,53.5,51.2,30.02,NE,39,5.0,5.0,92,0.00,,,0.00,Wunderground v.1.15,2013-06-06 06:05:00,
2013-06-06 01:15:00,53.0,50.7,30.02,North,4,4.0,7.0,92,0.00,,,0.00,Wunderground v.1.15,2013-06-06 06:15:00,
2013-06-06 01:20:00,52.6,50.6,30.03,NE,49,5.0,5.0,93,0.00,,,0.00,Wunderground v.1.15,2013-06-06 06:20:00,
2013-06-06 01:30:00,52.2,50.5,30.03,NE,37,5.0,7.0,94,0.00,,,0.00,Wunderground v.1.15,2013-06-06 06:30:00,
2013-06-06 01:40:00,51.8,50.1,30.03,NNE,18,4.0,5.0,94,0.00,,,0.00,Wunderground v.1.15,2013-06-06 06:40:00,
2013-06-06 01:45:00,51.8,50.1,30.03,ENE,68,3.0,5.0,94,0.00,,,0.00,Wunderground v.1.15,2013-06-06 06:45:00,
2013-06-06 01:55:00,51.8,50.1,30.03,NNE,23,4.0,4.0,94,0.00,,,0.00,Wunderground v.1.15,2013-06-06 06:55:00,
2013-06-06 02:05:00,51.5,49.8,30.03,ENE,58,5.0,5.0,94,0.00,,,0.00,Wunderground v.1.15,2013-06-06 07:05:00,
2013-06-06 02:15:00,51.5,49.8,30.03,NE,43,4.0,4.0,94,0.00,,,0.00,Wunderground v.1.15,2013-06-06 07:15:00,
2013-06-06 02:25:00,51.7,50.3,30.03,North,10,2.0,3.0,95,0.00,,,0.00,Wunderground v.1.15,2013-06-06 07:25:00,
2013-06-06 02:35:00,51.7,50.0,30.03,NNE,24,5.0,6.0,94,0.00,,,0.00,Wunderground v.1.15,2013-06-06 07:35:00,
2013-06-06 02:40:00,51.7,50.0,30.03,NNE,14,5.0,5.0,94,0.00,,,0.00,Wunderground v.1.15,2013-06-06 07:40:00,
2013-06-06 02:50:00,51.7,50.0,30.03,NE,37,4.0,4.0,94,0.00,,,0.00,Wunderground v.1.15,2013-06-06 07:50:00,
2013-06-06 03:00:00,51.7,50.0,30.03,NE,40,4.0,4.0,94,0.00,,,0.00,Wunderground v.1.15,2013-06-06 08:00:00,
2013-06-06 03:05:00,51.5,49.8,30.03,NE,34,5.0,5.0,94,0.00,,,0.00,Wunderground v.1.15,2013-06-06 08:05:00,
2013-06-06 03:15:00,51.4,49.7,30.03,North,8,4.0,5.0,94,0.00,,,0.00,Wunderground v.1.15,2013-06-06 08:15:00,
2013-06-06 03:20:00,51.4,49.7,30.03,North,4,4.0,4.0,94,0.00,,,0.00,Wunderground v.1.15,2013-06-06 08:20:00,
2013-06-06 03:30:00,51.4,49.7,30.02,NNE,22,3.0,4.0,94,0.00,,,0.00,Wunderground v.1.15,2013-06-06 08:30:00,
2013-06-06 03:35:00,51.4,49.7,30.02,NNE,25,3.0,7.0,94,0.00,,,0.00,Wunderground v.1.15,2013-06-06 08:35:00,
2013-06-06 03:45:00,51.3,49.6,30.02,NNE,29,4.0,7.0,94,0.00,,,0.00,Wunderground v.1.15,2013-06-06 08:45:00,
2013-06-06 03:55:00,51.3,49.6,30.02,NNE,29,3.0,3.0,94,0.00,,,0.00,Wunderground v.1.15,2013-06-06 08:55:00,
2013-06-06 04:00:00,51.3,49.6,30.02,NNE,33,3.0,5.0,94,0.00,,,0.00,Wunderground v.1.15,2013-06-06 09:00:00,
2013-06-06 04:05:00,51.2,49.5,30.02,NNE,18,3.0,5.0,94,0.00,,,0.00,Wunderground v.1.15,2013-06-06 09:05:00,
2013-06-06 04:15:00,51.0,49.3,30.02,NNE,13,4.0,6.0,94,0.00,,,0.00,Wunderground v.1.15,2013-06-06 09:15:00,
2013-06-06 04:25:00,51.0,49.3,30.02,NNE,29,3.0,4.0,94,0.00,,,0.00,Wunderground v.1.15,2013-06-06 09:25:00,
2013-06-06 04:30:00,50.9,49.2,30.02,NNE,23,3.0,3.0,94,0.00,,,0.00,Wunderground v.1.15,2013-06-06 09:30:00,
2013-06-06 04:40:00,50.9,49.5,30.02,ENE,65,4.0,4.0,95,0.00,,,0.00,Wunderground v.1.15,2013-06-06 09:40:00,
2013-06-06 04:50:00,50.7,49.3,30.02,North,4,4.0,4.0,95,0.00,,,0.00,Wunderground v.1.15,2013-06-06 09:50:00,
2013-06-06 05:00:00,50.8,49.4,30.03,ENE,59,3.0,3.0,95,0.00,,,0.00,Wunderground v.1.15,2013-06-06 10:00:00,
2013-06-06 05:05:00,50.8,49.4,30.03,NE,34,3.0,3.0,95,0.00,,,0.00,Wunderground v.1.15,2013-06-06 10:05:00,
2013-06-06 05:15:00,50.3,48.6,30.03,North,10,5.0,5.0,94,0.00,,,0.00,Wunderground v.1.15,2013-06-06 10:15:00,
2013-06-06 05:20:00,50.2,48.5,30.03,NE,35,5.0,6.0,94,0.00,,,0.00,Wunderground v.1.15,2013-06-06 10:20:00,
2013-06-06 05:30:00,50.1,48.4,30.03,NE,41,4.0,4.0,94,0.00,,,0.00,Wunderground v.1.15,2013-06-06 10:30:00,
2013-06-06 05:35:00,50.1,48.4,30.03,NNE,16,4.0,4.0,94,0.00,,,0.00,Wunderground v.1.15,2013-06-06 10:35:00,
2013-06-06 05:45:00,50.0,48.6,30.03,NE,38,5.0,9.0,95,0.00,,,0.00,Wunderground v.1.15,2013-06-06 10:45:00,
2013-06-06 05:55:00,49.7,48.0,30.03,NE,45,5.0,5.0,94,0.00,,,0.00,Wunderground v.1.15,2013-06-06 10:55:00,
2013-06-06 06:05:00,49.6,48.2,30.03,NNE,26,5.0,7.0,95,0.00,,,0.00,Wunderground v.1.15,2013-06-06 11:05:00,
2013-06-06 06:15:00,49.7,48.3,30.04,ENE,63,3.0,4.0,95,0.00,,,0.00,Wunderground v.1.15,2013-06-06 11:15:00,
2013-06-06 06:25:00,49.9,48.5,30.03,North,359,4.0,5.0,95,0.00,,,0.00,Wunderground v.1.15,2013-06-06 11:25:00,
2013-06-06 06:35:00,50.0,48.6,30.04,NNE,17,4.0,5.0,95,0.00,,,0.00,Wunderground v.1.15,2013-06-06 11:35:00,
2013-06-06 06:45:00,50.1,48.7,30.03,NNE,18,4.0,4.0,95,0.00,,,0.00,Wunderground v.1.15,2013-06-06 11:45:00,
2013-06-06 06:55:00,50.1,48.7,30.03,North,4,4.0,5.0,95,0.00,,,0.00,Wunderground v.1.15,2013-06-06 11:55:00,
2013-06-06 07:00:00,50.2,48.8,30.03,NNE,33,4.0,5.0,95,0.00,,,0.00,Wunderground v.1.15,2013-06-06 12:00:00,
2013-06-06 07:05:00,50.3,49.2,30.04,North,10,4.0,5.0,96,0.00,,,0.00,Wunderground v.1.15,2013-06-06 12:05:00,
2013-06-06 07:15:00,50.3,48.9,30.04,NNE,23,5.0,5.0,95,0.00,,,0.00,Wunderground v.1.15,2013-06-06 12:15:00,
2013-06-06 07:20:00,50.4,49.0,30.04,NNE,19,4.0,8.0,95,0.00,,,0.00,Wunderground v.1.15,2013-06-06 12:20:00,
2013-06-06 07:30:00,50.6,49.2,30.04,NNE,24,3.0,4.0,95,0.00,,,0.00,Wunderground v.1.15,2013-06-06 12:30:00,
2013-06-06 07:35:00,50.6,49.2,30.04,North,359,4.0,4.0,95,0.00,,,0.00,Wunderground v.1.15,2013-06-06 12:35:00,
2013-06-06 07:45:00,50.7,49.3,30.04,NE,37,4.0,5.0,95,0.00,,,0.00,Wunderground v.1.15,2013-06-06 12:45:00,
2013-06-06 07:55:00,51.2,49.5,30.04,NNW,340,4.0,4.0,94,0.00,,,0.00,Wunderground v.1.15,2013-06-06 12:55:00,
2013-06-06 08:00:00,51.2,49.2,30.04,NNE,14,5.0,5.0,93,0.00,,,0.00,Wunderground v.1.15,2013-06-06 13:00:00,
2013-06-06 08:05:00,51.4,49.4,30.05,North,354,4.0,5.0,93,0.00,,,0.00,Wunderground v.1.15,2013-06-06 13:05:00,
2013-06-06 08:15:00,51.4,49.4,30.04,North,359,4.0,6.0,93,0.00,,,0.00,Wunderground v.1.15,2013-06-06 13:15:00,
2013-06-06 08:20:00,51.4,49.4,30.05,North,354,4.0,4.0,93,0.00,,,0.00,Wunderground v.1.15,2013-06-06 13:20:00,
2013-06-06 08:30:00,51.5,49.5,30.05,NNE,19,4.0,4.0,93,0.00,,,0.00,Wunderground v.1.15,2013-06-06 13:30:00,
2013-06-06 08:35:00,51.5,49.5,30.05,NNW,335,3.0,4.0,93,0.00,,,0.00,Wunderground v.1.15,2013-06-06 13:35:00,
2013-06-06 08:45:00,51.6,49.6,30.05,NE,36,4.0,5.0,93,0.00,,,0.00,Wunderground v.1.15,2013-06-06 13:45:00,
2013-06-06 08:50:00,51.7,49.5,30.05,North,359,5.0,5.0,92,0.00,,,0.00,Wunderground v.1.15,2013-06-06 13:50:00,
2013-06-06 09:00:00,52.1,49.6,30.05,NNE,21,5.0,5.0,91,0.00,,,0.00,Wunderground v.1.15,2013-06-06 14:00:00,
2013-06-06 09:05:00,52.3,49.8,30.05,NNE,12,5.0,5.0,91,0.00,,,0.00,Wunderground v.1.15,2013-06-06 14:05:00,
2013-06-06 09:15:00,52.6,50.0,30.05,North,354,2.0,4.0,91,0.00,,,0.00,Wunderground v.1.15,2013-06-06 14:15:00,
2013-06-06 09:25:00,52.8,50.2,30.05,WNW,299,1.0,2.0,91,0.00,,,0.00,Wunderground v.1.15,2013-06-06 14:25:00,
2013-06-06 09:35:00,52.4,49.8,30.05,North,4,3.0,3.0,91,0.00,,,0.00,Wunderground v.1.15,2013-06-06 14:35:00,
2013-06-06 09:45:00,52.3,49.8,30.05,North,354,3.0,4.0,91,0.00,,,0.00,Wunderground v.1.15,2013-06-06 14:45:00,
2013-06-06 09:55:00,52.1,49.8,30.06,NE,35,4.0,6.0,92,0.00,,,0.00,Wunderground v.1.15,2013-06-06 14:55:00,
2013-06-06 10:00:00,51.9,49.4,30.06,NNE,17,5.0,5.0,91,0.00,,,0.00,Wunderground v.1.15,2013-06-06 15:00:00,
2013-06-06 10:05:00,52.0,49.7,30.05,NNW,337,4.0,5.0,92,0.00,,,0.00,Wunderground v.1.15,2013-06-06 15:05:00,
2013-06-06 10:15:00,51.8,49.5,30.06,North,359,5.0,6.0,92,0.00,,,0.00,Wunderground v.1.15,2013-06-06 15:15:00,
2013-06-06 10:25:00,51.8,49.5,30.06,North,359,5.0,6.0,92,0.00,,,0.00,Wunderground v.1.15,2013-06-06 15:25:00,
2013-06-06 10:35:00,52.2,49.4,30.06,ENE,58,6.0,7.0,90,0.00,,,0.00,Wunderground v.1.15,2013-06-06 15:35:00,
2013-06-06 10:40:00,52.4,49.6,30.06,North,8,5.0,7.0,90,0.00,,,0.00,Wunderground v.1.15,2013-06-06 15:40:00,
2013-06-06 10:50:00,52.6,49.8,30.06,North,354,5.0,5.0,90,0.00,,,0.00,Wunderground v.1.15,2013-06-06 15:50:00,
2013-06-06 10:55:00,52.7,49.8,30.06,NE,42,5.0,8.0,90,0.00,,,0.00,Wunderground v.1.15,2013-06-06 15:55:00,
2013-06-06 11:05:00,52.8,49.6,30.06,NNW,332,6.0,6.0,89,0.00,,,0.00,Wunderground v.1.15,2013-06-06 16:05:00,
2013-06-06 11:15:00,53.0,49.5,30.06,NNE,12,6.0,6.0,88,0.00,,,0.00,Wunderground v.1.15,2013-06-06 16:15:00,
2013-06-06 11:20:00,52.9,49.7,30.06,NNW,342,6.0,6.0,89,0.00,,,0.00,Wunderground v.1.15,2013-06-06 16:20:00,
2013-06-06 11:30:00,53.5,50.3,30.06,NNE,22,4.0,8.0,89,0.00,,,0.00,Wunderground v.1.15,2013-06-06 16:30:00,
2013-06-06 11:35:00,53.3,50.1,30.06,NNE,18,5.0,8.0,89,0.00,,,0.00,Wunderground v.1.15,2013-06-06 16:35:00,
2013-06-06 11:45:00,53.2,50.0,30.06,NE,36,6.0,6.0,89,0.00,,,0.00,Wunderground v.1.15,2013-06-06 16:45:00,
2013-06-06 11:55:00,53.4,50.2,30.06,NE,44,5.0,7.0,89,0.00,,,0.00,Wunderground v.1.15,2013-06-06 16:55:00,
2013-06-06 12:00:00,53.2,50.0,30.06,NNE,26,5.0,5.0,89,0.00,,,0.00,Wunderground v.1.15,2013-06-06 17:00:00,
2013-06-06 12:05:00,53.5,50.6,30.06,NE,51,6.0,6.0,90,0.00,,,0.00,Wunderground v.1.15,2013-06-06 17:05:00,
2013-06-06 12:15:00,54.0,50.8,30.06,North,11,5.0,8.0,89,0.00,,,0.00,Wunderground v.1.15,2013-06-06 17:15:00,
2013-06-06 12:20:00,53.8,50.3,30.06,NNE,25,6.0,6.0,88,0.00,,,0.00,Wunderground v.1.15,2013-06-06 17:20:00,
2013-06-06 12:30:00,54.4,50.9,30.06,NNE,22,5.0,5.0,88,0.00,,,0.00,Wunderground v.1.15,2013-06-06 17:30:00,
2013-06-06 12:35:00,54.6,50.8,30.06,NE,41,5.0,5.0,87,0.00,,,0.00,Wunderground v.1.15,2013-06-06 17:35:00,
2013-06-06 12:45:00,55.8,51.4,30.06,North,4,3.0,6.0,85,0.00,,,0.00,Wunderground v.1.15,2013-06-06 17:45:00,
2013-06-06 12:55:00,55.4,50.6,30.06,NE,35,5.0,6.0,84,0.00,,,0.00,Wunderground v.1.15,2013-06-06 17:55:00,
2013-06-06 13:00:00,55.4,51.0,30.06,North,10,5.0,6.0,85,0.00,,,0.00,Wunderground v.1.15,2013-06-06 18:00:00,
2013-06-06 13:05:00,55.7,50.9,30.06,NNW,345,5.0,6.0,84,0.00,,,0.00,Wunderground v.1.15,2013-06-06 18:05:00,
2013-06-06 13:15:00,56.0,51.2,30.06,NNE,15,5.0,8.0,84,0.00,,,0.00,Wunderground v.1.15,2013-06-06 18:15:00,
2013-06-06 13:20:00,55.7,50.9,30.06,NE,35,6.0,6.0,84,0.00,,,0.00,Wunderground v.1.15,2013-06-06 18:20:00,
2013-06-06 13:30:00,56.1,51.3,30.06,North,4,4.0,4.0,84,0.00,,,0.00,Wunderground v.1.15,2013-06-06 18:30:00,
2013-06-06 13:40:00,56.0,50.9,30.05,NNE,31,5.0,5.0,83,0.00,,,0.00,Wunderground v.1.15,2013-06-06 18:40:00,
2013-06-06 13:45:00,56.2,51.4,30.05,NNE,22,4.0,5.0,84,0.00,,,0.00,Wunderground v.1.15,2013-06-06 18:45:00,
2013-06-06 13:55:00,56.4,51.3,30.05,North,350,4.0,6.0,83,0.00,,,0.00,Wunderground v.1.15,2013-06-06 18:55:00,
2013-06-06 14:00:00,56.4,51.3,30.05,NNW,347,5.0,5.0,83,0.00,,,0.00,Wunderground v.1.15,2013-06-06 19:00:00,
2013-06-06 14:05:00,56.3,51.2,30.06,NNE,18,5.0,6.0,83,0.00,,,0.00,Wunderground v.1.15,2013-06-06 19:05:00,
2013-06-06 14:15:00,56.4,51.6,30.05,North,4,5.0,7.0,84,0.00,,,0.00,Wunderground v.1.15,2013-06-06 19:15:00,
2013-06-06 14:25:00,56.4,51.3,30.05,North,4,6.0,10.0,83,0.00,,,0.00,Wunderground v.1.15,2013-06-06 19:25:00,
2013-06-06 14:35:00,56.5,51.4,30.05,NE,35,5.0,6.0,83,0.00,,,0.00,Wunderground v.1.15,2013-06-06 19:35:00,
2013-06-06 14:45:00,56.7,51.6,30.05,NNE,26,6.0,6.0,83,0.00,,,0.00,Wunderground v.1.15,2013-06-06 19:45:00,
2013-06-06 14:55:00,57.2,51.8,30.05,NE,47,5.0,6.0,82,0.00,,,0.00,Wunderground v.1.15,2013-06-06 19:55:00,
2013-06-06 15:05:00,56.9,51.1,30.05,North,359,6.0,8.0,81,0.00,,,0.00,Wunderground v.1.15,2013-06-06 20:05:00,
2013-06-06 15:15:00,57.3,51.5,30.05,NE,41,4.0,8.0,81,0.00,,,0.00,Wunderground v.1.15,2013-06-06 20:15:00,
2013-06-06 15:25:00,57.6,51.8,30.05,NE,38,5.0,5.0,81,0.00,,,0.00,Wunderground v.1.15,2013-06-06 20:25:00,
2013-06-06 15:30:00,57.6,51.8,30.05,NNE,18,4.0,5.0,81,0.00,,,0.00,Wunderground v.1.15,2013-06-06 20:30:00,
2013-06-06 15:40:00,57.6,51.5,30.05,NNE,29,6.0,6.0,80,0.00,,,0.00,Wunderground v.1.15,2013-06-06 20:40:00,
2013-06-06 15:50:00,57.4,51.3,30.05,NE,50,6.0,6.0,80,0.00,,,0.00,Wunderground v.1.15,2013-06-06 20:50:00,
2013-06-06 16:00:00,57.7,51.2,30.05,North,4,5.0,8.0,79,0.00,,,0.00,Wunderground v.1.15,2013-06-06 21:00:00,
2013-06-06 16:05:00,57.7,51.6,30.05,NNE,31,6.0,8.0,80,0.00,,,0.00,Wunderground v.1.15,2013-06-06 21:05:00,
2013-06-06 16:15:00,57.4,51.3,30.05,NE,39,5.0,5.0,80,0.00,,,0.00,Wunderground v.1.15,2013-06-06 21:15:00,
2013-06-06 16:20:00,57.2,51.1,30.05,NNE,29,6.0,6.0,80,0.00,,,0.00,Wunderground v.1.15,2013-06-06 21:20:00,
2013-06-06 16:30:00,57.6,51.1,30.05,North,4,4.0,4.0,79,0.00,,,0.00,Wunderground v.1.15,2013-06-06 21:30:00,
2013-06-06 16:35:00,57.9,51.8,30.05,NE,36,5.0,6.0,80,0.00,,,0.00,Wunderground v.1.15,2013-06-06 21:35:00,
2013-06-06 16:45:00,57.6,51.1,30.05,NNE,14,6.0,7.0,79,0.00,,,0.00,Wunderground v.1.15,2013-06-06 21:45:00,
2013-06-06 16:55:00,57.6,50.8,30.06,North,9,4.0,5.0,78,0.00,,,0.00,Wunderground v.1.15,2013-06-06 21:55:00,
2013-06-06 17:05:00,57.3,51.2,30.06,NE,38,6.0,6.0,80,0.00,,,0.00,Wunderground v.1.15,2013-06-06 22:05:00,
2013-06-06 17:15:00,57.1,51.3,30.06,NNE,32,5.0,7.0,81,0.00,,,0.00,Wunderground v.1.15,2013-06-06 22:15:00,
2013-06-06 17:25:00,57.0,51.6,30.06,NNE,23,4.0,5.0,82,0.00,,,0.00,Wunderground v.1.15,2013-06-06 22:25:00,
2013-06-06 17:35:00,56.9,51.1,30.07,NNE,13,3.0,6.0,81,0.00,,,0.00,Wunderground v.1.15,2013-06-06 22:35:00,
2013-06-06 17:45:00,56.8,51.0,30.07,NE,52,4.0,5.0,81,0.00,,,0.00,Wunderground v.1.15,2013-06-06 22:45:00,
2013-06-06 17:55:00,56.6,50.8,30.07,NNE,18,4.0,6.0,81,0.00,,,0.00,Wunderground v.1.15,2013-06-06 22:55:00,
2013-06-06 18:00:00,56.6,50.8,30.07,NNE,14,4.0,4.0,81,0.00,,,0.00,Wunderground v.1.15,2013-06-06 23:00:00,
2013-06-06 18:05:00,56.6,50.8,30.07,ENE,76,4.0,4.0,81,0.00,,,0.00,Wunderground v.1.15,2013-06-06 23:05:00,
2013-06-06 18:15:00,56.5,51.1,30.07,ENE,57,5.0,5.0,82,0.00,,,0.00,Wunderground v.1.15,2013-06-06 23:15:00,
2013-06-06 18:25:00,56.4,51.0,30.07,NE,48,3.0,4.0,82,0.00,,,0.00,Wunderground v.1.15,2013-06-06 23:25:00,
2013-06-06 18:35:00,56.4,51.0,30.07,ENE,62,3.0,5.0,82,0.00,,,0.00,Wunderground v.1.15,2013-06-06 23:35:00,
2013-06-06 18:45:00,56.4,51.0,30.07,ENE,61,3.0,5.0,82,0.00,,,0.00,Wunderground v.1.15,2013-06-06 23:45:00,
2013-06-06 18:50:00,56.3,50.9,30.07,NE,56,4.0,4.0,82,0.00,,,0.00,Wunderground v.1.15,2013-06-06 23:50:00,
2013-06-06 19:00:00,56.4,51.0,30.07,NE,34,4.0,4.0,82,0.00,,,0.00,Wunderground v.1.15,2013-06-07 00:00:00,
2013-06-06 19:05:00,56.2,51.1,30.07,NNE,18,4.0,4.0,83,0.00,,,0.00,Wunderground v.1.15,2013-06-07 00:05:00,
2013-06-06 19:15:00,55.9,50.8,30.07,NNE,30,4.0,4.0,83,0.00,,,0.00,Wunderground v.1.15,2013-06-07 00:15:00,
2013-06-06 19:20:00,55.9,50.8,30.07,NE,50,4.0,4.0,83,0.00,,,0.00,Wunderground v.1.15,2013-06-07 00:20:00,
2013-06-06 19:30:00,55.7,50.9,30.07,NNE,28,4.0,6.0,84,0.00,,,0.00,Wunderground v.1.15,2013-06-07 00:30:00,
2013-06-06 19:40:00,55.3,50.9,30.07,NNE,29,4.0,4.0,85,0.00,,,0.00,Wunderground v.1.15,2013-06-07 00:40:00,
2013-06-06 19:50:00,54.9,51.1,30.08,ENE,58,3.0,3.0,87,0.00,,,0.00,Wunderground v.1.15,2013-06-07 00:50:00,
2013-06-06 19:55:00,54.8,51.0,30.08,NNE,25,3.0,4.0,87,0.00,,,0.00,Wunderground v.1.15,2013-06-07 00:55:00,
2013-06-06 20:00:00,54.8,51.0,30.08,NE,53,4.0,4.0,87,0.00,,,0.00,Wunderground v.1.15,2013-06-07 01:00:00,
2013-06-06 20:05:00,54.8,51.0,30.07,NE,38,4.0,4.0,87,0.00,,,0.00,Wunderground v.1.15,2013-06-07 01:05:00,
2013-06-06 20:15:00,54.7,50.9,30.07,ENE,62,3.0,4.0,87,0.00,,,0.00,Wunderground v.1.15,2013-06-07 01:15:00,
2013-06-06 20:20:00,54.6,51.1,30.08,NNE,33,2.0,2.0,88,0.00,,,0.00,Wunderground v.1.15,2013-06-07 01:20:00,
2013-06-06 20:30:00,54.3,51.1,30.08,ENE,71,3.0,3.0,89,0.00,,,0.00,Wunderground v.1.15,2013-06-07 01:30:00,
2013-06-06 20:40:00,54.1,51.2,30.08,East,81,2.0,2.0,90,0.00,,,0.00,Wunderground v.1.15,2013-06-07 01:40:00,
2013-06-06 20:50:00,54.0,51.4,30.08,ENE,68,3.0,3.0,91,0.00,,,0.00,Wunderground v.1.15,2013-06-07 01:50:00,
2013-06-06 21:00:00,53.9,51.3,30.08,ENE,65,3.0,3.0,91,0.00,,,0.00,Wunderground v.1.15,2013-06-07 02:00:00,
2013-06-06 21:05:00,53.8,51.2,30.08,NE,41,4.0,4.0,91,0.00,,,0.00,Wunderground v.1.15,2013-06-07 02:05:00,
2013-06-06 21:15:00,53.9,51.3,30.09,NNE,18,3.0,4.0,91,0.00,,,0.00,Wunderground v.1.15,2013-06-07 02:15:00,
2013-06-06 21:20:00,53.8,51.2,30.09,NE,34,2.0,2.0,91,0.00,,,0.00,Wunderground v.1.15,2013-06-07 02:20:00,
2013-06-06 21:30:00,53.9,51.0,30.09,NE,49,2.0,2.0,90,0.00,,,0.00,Wunderground v.1.15,2013-06-07 02:30:00,
2013-06-06 21:35:00,53.9,51.0,30.09,NE,45,2.0,2.0,90,0.00,,,0.00,Wunderground v.1.15,2013-06-07 02:35:00,
2013-06-06 21:45:00,54.0,51.1,30.10,NNE,28,3.0,3.0,90,0.00,,,0.00,Wunderground v.1.15,2013-06-07 02:45:00,
2013-06-06 21:55:00,54.0,51.1,30.10,NNE,32,3.0,4.0,90,0.00,,,0.00,Wunderground v.1.15,2013-06-07 02:55:00,
2013-06-06 22:00:00,54.0,51.1,30.10,NE,44,3.0,3.0,90,0.00,,,0.00,Wunderground v.1.15,2013-06-07 03:00:00,
2013-06-06 22:05:00,54.0,50.8,30.10,NE,52,4.0,4.0,89,0.00,,,0.00,Wunderground v.1.15,2013-06-07 03:05:00,
2013-06-06 22:15:00,53.9,51.0,30.10,North,359,3.0,4.0,90,0.00,,,0.00,Wunderground v.1.15,2013-06-07 03:15:00,
2013-06-06 22:20:00,53.8,50.9,30.09,NE,50,4.0,6.0,90,0.00,,,0.00,Wunderground v.1.15,2013-06-07 03:20:00,
2013-06-06 22:30:00,53.6,51.0,30.09,NE,38,3.0,3.0,91,0.00,,,0.00,Wunderground v.1.15,2013-06-07 03:30:00,
2013-06-06 22:40:00,53.5,51.2,30.09,NE,45,1.0,1.0,92,0.00,,,0.00,Wunderground v.1.15,2013-06-07 03:40:00,
2013-06-06 22:50:00,53.5,50.9,30.09,NE,39,1.0,1.0,91,0.00,,,0.00,Wunderground v.1.15,2013-06-07 03:50:00,
2013-06-06 23:00:00,53.5,50.9,30.09,NNE,16,1.0,1.0,91,0.00,,,0.00,Wunderground v.1.15,2013-06-07 04:00:00,
2013-06-06 23:05:00,53.5,50.9,30.09,NE,46,1.0,2.0,91,0.00,,,0.00,Wunderground v.1.15,2013-06-07 04:05:00,
2013-06-06 23:10:00,53.5,50.9,30.09,NNE,31,2.0,3.0,91,0.00,,,0.00,Wunderground v.1.15,2013-06-07 04:10:00,
2013-06-06 23:20:00,53.5,51.2,30.09,NE,34,1.0,1.0,92,0.00,,,0.00,Wunderground v.1.15,2013-06-07 04:20:00,
2013-06-06 23:30:00,53.5,50.9,30.09,NE,54,2.0,2.0,91,0.00,,,0.00,Wunderground v.1.15,2013-06-07 04:30:00,
2013-06-06 23:40:00,53.5,50.9,30.09,NNE,26,2.0,4.0,91,0.00,,,0.00,Wunderground v.1.15,2013-06-07 04:40:00,
2013-06-06 23:50:00,53.4,50.8,30.09,NNE,31,2.0,4.0,91,0.00,,,0.00,Wunderground v.1.15,2013-06-07 04:50:00,